DateTimeUTC,F1_A11,F1_S11,BsB_S11,BsG_S11,BsR_S11,BbsB_S11,BbsG_S11,BbsR_S11,BaB_A11,BaG_A11,BaR_A11,Tu_S11,T_S11,Uu_S11,U_S11,P_S11,T1_A11
2021-07-21T05:00:00Z,00000200,20000000,,,,,,,0000.04,-000.26,-000.05,18.5,25.3,07.0,04.6,0668.9,31.1
2021-07-21T05:01:00Z,00000200,20000000,,,,,,,0000.01,0000.20,0000.29,18.5,25.3,06.7,04.4,0668.9,31.1
2021-07-21T05:02:00Z,00000200,20000000,,,,,,,-000.17,0000.02,-000.26,18.6,25.3,06.6,04.4,0668.9,31.1
2021-07-21T05:03:00Z,00000200,60000000,,,,,,,-000.03,0000.18,-000.00,18.6,25.3,06.6,04.4,0668.9,31.1
2021-07-21T05:04:00Z,00000200,40000000,0000.64,0000.95,0000.50,0000.36,-000.04,0000.04,-000.08,0000.02,0000.15,18.8,25.2,06.7,04.5,0669.7,31.1
2021-07-21T05:05:00Z,00000200,00000000,0001.79,0001.13,0000.78,-000.02,0000.08,0000.10,-000.00,-000.31,0000.07,18.8,25.1,06.7,04.6,0669.8,31.1
2021-07-21T05:06:00Z,00000200,00000000,0001.30,0000.84,0000.75,-000.48,0000.18,0000.44,0000.07,0000.04,0000.22,18.8,25.1,06.8,04.6,0669.8,31.1
2021-07-21T05:07:00Z,00000200,00000000,0001.72,0001.13,0000.51,-000.02,0000.19,-000.21,-000.23,0000.12,-000.09,18.8,25.1,06.7,04.6,0669.8,31.1
2021-07-21T05:08:00Z,00000200,00000000,0001.78,0000.73,0000.83,-000.05,0000.01,0000.37,0000.34,-000.02,-000.15,18.8,25.1,06.7,04.6,0669.8,31.1
2021-07-21T05:09:00Z,00000200,00000000,0002.04,0001.09,0001.06,-000.39,0000.44,0000.45,0000.01,-000.21,0000.21,18.8,25.1,06.7,04.6,0669.8,31.1
2021-07-21T05:10:00Z,00000200,00000000,0001.54,0001.11,0000.67,-000.03,0000.15,0000.22,-000.32,0000.10,-000.02,18.7,25.1,06.8,04.6,0669.8,31.1
2021-07-21T05:11:00Z,00000200,00000000,0001.54,0001.11,0000.81,0000.04,0000.08,0000.22,0000.39,-000.09,-000.04,18.7,25.1,06.8,04.6,0669.8,31.1
2021-07-21T05:12:00Z,00000200,00000000,0001.55,0001.07,0000.84,0000.28,0000.11,0000.22,-000.18,0000.25,-000.17,18.7,25.1,06.8,04.6,0669.8,31.1
2021-07-21T05:13:00Z,00000200,00000000,0001.84,0001.19,0000.42,0000.23,-000.07,0000.10,0000.05,-000.08,0000.47,18.7,25.0,06.8,04.6,0669.8,31.1
2021-07-21T05:14:00Z,00000200,00000000,0001.48,0001.16,0000.41,0000.49,0000.08,0000.22,0000.40,-000.01,-000.21,18.7,25.0,06.7,04.6,0669.8,31.1
2021-07-21T05:15:00Z,00000200,00000000,0001.66,0001.25,0000.75,-000.39,0000.20,0000.38,-000.44,0000.01,0000.07,18.7,25.0,06.8,04.6,0669.8,31.1
2021-07-21T05:16:00Z,00000200,00000000,0001.01,0001.11,0000.87,0000.25,-000.14,-000.03,0000.22,0000.43,0000.18,18.8,25.1,06.9,04.7,0669.8,31.1
2021-07-21T05:17:00Z,00000200,00000000,0001.56,0001.07,0000.74,0000.31,0000.11,0000.06,-000.11,-000.35,0000.25,18.8,25.1,06.8,04.6,0669.8,31.1
2021-07-21T05:18:00Z,00000200,00000000,0001.63,0001.07,0000.58,0000.85,-000.02,0000.20,0000.02,0000.15,-000.31,18.7,25.1,06.7,04.6,0669.8,31.1
2021-07-21T05:19:00Z,00000200,00000000,0001.61,0001.07,0000.62,0001.02,0000.14,0000.38,0000.08,0000.01,0000.22,18.7,25.0,06.7,04.5,0669.8,31.1
2021-07-21T05:20:00Z,00000200,00000000,0002.07,0000.74,0000.54,-000.02,0000.27,0000.32,0000.16,-000.13,-000.24,18.7,25.0,06.7,04.6,0669.8,31.1
2021-07-21T05:21:00Z,00000200,00000000,0001.92,0001.17,0001.04,0000.47,0000.03,0000.17,0000.01,-000.00,0000.24,18.7,25.0,06.8,04.6,0669.8,31.1
2021-07-21T05:22:00Z,00000200,00000000,0001.44,0001.10,0000.85,0000.32,-000.03,0000.23,-000.19,0000.01,0000.01,18.7,25.0,06.8,04.6,0669.8,31.1
2021-07-21T05:23:00Z,00000200,00000000,0001.18,0001.24,0000.58,-000.11,0000.11,-000.03,0000.03,0000.27,0000.13,18.7,25.0,06.8,04.6,0669.7,31.1
2021-07-21T05:24:00Z,00000200,00000000,0002.05,0001.15,0001.20,0000.18,0000.14,0000.38,-000.05,0000.19,-000.05,18.7,25.0,06.8,04.6,0669.7,31.1
2021-07-21T05:25:00Z,00000200,00000000,0001.76,0001.25,0000.41,0000.16,0000.19,0000.41,0000.11,-000.25,-000.04,18.7,25.0,06.9,04.6,0669.7,31.1
2021-07-21T05:26:00Z,00000200,00000000,0001.66,0001.17,0000.91,-000.02,-000.03,0000.12,0000.01,0000.41,0000.02,18.7,25.0,06.9,04.7,0669.7,31.1
2021-07-21T05:27:00Z,00000200,00000000,0001.70,0001.02,0000.33,0000.05,0000.36,0000.29,0000.03,-000.40,0000.49,18.7,25.0,06.9,04.7,0669.7,31.1
2021-07-21T05:28:00Z,00000200,00000000,0002.28,0000.78,0000.86,0000.25,0000.15,0000.25,0000.12,0000.32,0000.08,18.7,25.0,07.0,04.8,0669.7,31.1
2021-07-21T05:29:00Z,00000200,00000000,0001.90,0000.82,0000.84,0000.43,0000.24,0000.50,0000.57,0000.02,0000.01,18.6,25.0,07.0,04.8,0669.7,31.1
2021-07-21T05:30:00Z,00000200,00000000,0001.55,0000.99,0000.79,0000.33,0000.24,0000.43,-000.33,0000.04,0000.21,18.7,25.0,07.0,04.7,0669.7,31.1
2021-07-21T05:31:00Z,00000200,00000000,0001.44,0001.07,0000.69,0000.06,0000.05,0000.16,0000.10,0000.19,-000.17,18.7,25.0,06.9,04.7,0669.7,31.1
2021-07-21T05:32:00Z,00000200,00000000,0001.63,0001.42,0000.70,0000.12,0000.21,0000.17,-000.07,-000.36,0000.25,18.7,25.0,06.9,04.7,0669.7,31.1
2021-07-21T05:33:00Z,00000200,00000000,0001.85,0001.27,0000.92,0000.54,0000.04,0000.10,0000.20,0000.30,-000.03,18.7,25.0,06.9,04.7,0669.7,31.1
2021-07-21T05:34:00Z,00000200,00000000,0001.18,0001.30,0000.70,-000.17,0000.09,0000.11,0000.02,-000.06,-000.11,18.8,25.0,06.9,04.7,0669.6,31.1
2021-07-21T05:35:00Z,00000200,00000000,0001.25,0001.25,0000.96,0000.18,0000.06,0000.32,-000.14,0000.27,0000.31,18.8,25.0,06.9,04.7,0669.6,31.1
2021-07-21T05:36:00Z,00000200,00000000,0001.69,0001.05,0001.03,0000.26,-000.01,0000.56,0000.16,0000.13,-000.36,18.8,25.0,07.0,04.8,0669.6,31.1
2021-07-21T05:37:00Z,00000200,00000000,0001.03,0000.79,0000.95,0000.47,0000.27,0000.23,0000.13,-000.17,0000.44,18.8,25.0,06.9,04.7,0669.6,31.1
2021-07-21T05:38:00Z,00000200,00000000,0001.58,0000.39,0001.02,0000.04,0000.25,0000.22,0000.08,-000.07,-000.27,18.7,25.0,07.0,04.8,0669.6,31.1
2021-07-21T05:39:00Z,00000200,00000000,0001.69,0000.83,0000.59,-000.20,-000.02,0000.07,-000.09,0000.31,0000.32,18.7,25.0,07.0,04.8,0669.6,31.1
2021-07-21T05:40:00Z,00000200,00000000,0000.99,0000.94,0000.69,0000.08,0000.21,0000.41,0000.20,-000.24,0000.06,18.7,25.0,07.0,04.8,0669.6,31.1
2021-07-21T05:41:00Z,00000200,00000000,0001.41,0000.55,0000.48,0000.17,-000.06,0000.20,-000.23,0000.25,-000.00,18.7,25.0,06.9,04.7,0669.7,31.1
2021-07-21T05:42:00Z,00000200,00000000,0001.96,0000.58,0000.68,-000.21,0000.06,0000.17,0000.07,-000.13,-000.32,18.7,25.0,07.0,04.8,0669.7,31.1
2021-07-21T05:43:00Z,00000200,00000000,0002.12,0000.72,0000.17,0000.11,0000.06,0000.27,0000.34,0000.28,0000.42,18.7,25.0,06.9,04.7,0669.6,31.1
2021-07-21T05:44:00Z,00000200,00000000,0001.19,0000.90,0000.44,0000.07,0000.24,0000.06,-000.11,0000.08,0000.08,18.7,25.0,06.9,04.7,0669.6,31.1
2021-07-21T05:45:00Z,00000200,00000000,0001.18,0000.55,0000.95,0000.38,-000.13,0000.14,0000.16,0000.09,0000.20,18.7,25.0,07.0,04.8,0669.7,31.1
2021-07-21T05:46:00Z,00000200,00000000,0001.22,0000.86,0000.61,0000.65,0000.18,0000.33,-000.25,-000.28,-000.28,18.8,25.0,06.9,04.7,0669.7,31.1
2021-07-21T05:47:00Z,00000200,00000000,0001.07,0000.81,0000.34,-000.11,0000.10,0000.24,0000.18,0000.04,0000.14,18.8,25.1,06.9,04.7,0669.6,31.1
2021-07-21T05:48:00Z,00000200,00000000,0001.36,0000.81,0000.40,0000.35,0000.01,-000.09,0000.22,0000.11,0000.03,18.9,25.1,06.9,04.7,0669.6,31.1
2021-07-21T05:49:00Z,00000200,00000000,0000.58,0000.90,0000.66,0000.19,0000.33,0000.12,0000.06,0000.24,0000.11,18.9,25.1,06.8,04.7,0669.6,31.1
2021-07-21T05:50:00Z,00000200,00000000,0000.81,0000.81,0000.66,0000.03,0000.16,0000.34,-000.30,-000.29,-000.18,18.9,25.1,06.9,04.8,0669.6,31.1
2021-07-21T05:51:00Z,00000200,00000000,0000.97,0000.70,0000.40,-000.01,-000.02,0000.32,0000.02,0000.16,0000.22,18.9,25.1,07.0,04.8,0669.6,31.1
2021-07-21T05:52:00Z,00000200,00000000,0000.90,0000.69,0000.54,0000.17,0000.32,0000.11,0000.10,0000.11,0000.02,18.8,25.1,06.9,04.7,0669.6,31.1
2021-07-21T05:53:00Z,00000200,00000000,0001.06,0000.76,0000.29,0000.49,-000.06,0000.14,-000.04,-000.11,-000.11,18.8,25.1,06.9,04.7,0669.6,31.1
2021-07-21T05:54:00Z,00000200,00000000,0001.38,0000.64,0000.30,0000.37,0000.29,-000.04,0000.41,0000.21,0000.03,18.8,25.1,06.9,04.7,0669.6,31.1
2021-07-21T05:55:00Z,00000200,00000000,0000.89,0000.57,0000.43,0000.36,0000.22,0000.24,-000.22,-000.13,0000.18,18.8,25.1,06.9,04.7,0669.6,31.1
2021-07-21T05:56:00Z,00000200,00000000,0000.77,0000.51,0000.53,0000.11,0000.27,0000.18,0000.27,-000.00,0000.09,18.8,25.0,06.8,04.6,0669.6,31.1
2021-07-21T05:57:00Z,00000200,40000000,,,,,,,-000.11,0000.12,0000.02,18.8,25.0,06.4,04.4,0669.7,31.1
2021-07-21T05:58:00Z,00000200,60000000,,,,,,,-000.35,-000.14,-000.14,18.6,25.2,06.9,04.6,0668.6,31.1
2021-07-21T05:59:00Z,00000200,20000000,,,,,,,-000.12,-000.07,-000.29,18.6,25.3,06.8,04.5,0668.6,31.1
